Regional Weather Roundup
Issued by NWS

Home | Current Version | Previous Version | Graphics & Text | Print | Product List | Glossary On
Versions: 1 2 3 4 5 6 7 8 9 10 11 12 13 14 15 16 17 18 19 20 21 22 23 24 25 26 27 28 29 30 31 32 33 34 35 36 37 38 39 40 41 42 43 44 45 46
000
ASUS45 KCYS 261110
RWRWY

WYOMING REGIONAL WEATHER ROUNDUP
NATIONAL WEATHER SERVICE CHEYENNE WY
400 AM MST FRI DEC 26 2014

NOTE:  "FAIR" INDICATES FEW OR NO CLOUDS BELOW 12,000 FEET
WITH NO SIGNIFICANT WEATHER AND/OR OBSTRUCTIONS TO VISIBILITY.

WYZ001-261200-
YELLOWSTONE NATIONAL PARK

CITY           SKY/WX    TMP DP  RH WIND       PRES   REMARKS
LK YELLOWSTONE   N/A     -1  -5  82 CALM      29.84R
W YELLOWSTONE  NOT AVBL

$$
WYZ002>013-054>058-071-098>099-261200-
NORTHERN WYOMING

CITY           SKY/WX    TMP DP  RH WIND       PRES   REMARKS
JACKSON        CLOUDY     7   3  85 N14       29.84R WCI -10
CODY           CLOUDY    18  16  93 W3        29.94S
GREYBULL       LGT SNOW  18  17  96 CALM      29.99S FOG
WORLAND        CLOUDY    16  13  88 CALM      29.98R
SHERIDAN       CLOUDY    19  14  81 CALM      30.00S
BUFFALO        CLOUDY    16  15  96 CALM      29.95S
GILLETTE       CLOUDY    18  14  84 N6        29.97S WCI  10
HULETT           N/A    N/A N/A N/A MISG        N/A
NEWCASTLE      FAIR      16  10  79 N6        29.97S WCI   7

$$
WYZ014>020-022>026-101>103-261200-
CENTRAL WYOMING

CITY           SKY/WX    TMP DP  RH WIND       PRES   REMARKS
BIG PINEY      CLOUDY     8   5  87 CALM      29.80S
PINEDALE       LGT SNOW  10  10 100 W5        29.80S WCI   2
DUBOIS         NOT AVBL
LANDER         LGT SNOW  16  13  88 NE3       29.89S FOG
RIVERTON       CLOUDY    14  11  87 SE3       29.91S
CASPER         LGT SNOW  14  11  87 NE8       29.92S FOG     WCI   3
DOUGLAS        LGT SNOW  16  13  88 CALM      29.95S FOG

$$
WYZ021-027>030-104>119-261200-
SOUTHERN WYOMING

CITY           SKY/WX    TMP DP  RH WIND       PRES   REMARKS
EVANSTON       CLOUDY    14   9  80 E13G20    29.79R WCI   0
FORT BRIDGER   LGT SNOW  15  13  94 SE7       29.83R WCI   5
ROCK SPRINGS   CLOUDY    12   7  80 NE12      29.80R WCI  -2
DIXON          CLOUDY    19  16  86 CALM      29.73S
RAWLINS        LGT SNOW  13   9  84 NE25      29.77R VSB 1   WCI  -7
SARATOGA       CLOUDY    12  10  92 SW8       29.73S WCI   1
LARAMIE        CLOUDY     5   0  79 CALM      29.76S
CHEYENNE       CLOUDY    11   9  92 N7        29.84S WCI   0
TORRINGTON     CLOUDY    18  15  88 CALM      29.96R
PINE BLUFFS      N/A     16  14  93 N6        29.90R WCI   7

$$



USA.gov is the U.S. government's official web portal to all federal, state and local government web resources and services.